Regional Weather Roundup
Issued by NWS

Home | Current Version | Previous Version | Text Only | Print | Product List | Glossary On
Versions: 1 2 3 4 5 6 7 8 9 10 11 12 13 14 15 16 17 18 19 20 21 22 23 24 25 26 27 28 29 30 31 32 33 34 35 36 37 38 39 40 41 42 43 44 45 46 47 48 49 50
548
ASUS44 KJAN 211503
RWRMS

MISSISSIPPI HOURLY WEATHER ROUNDUP
NATIONAL WEATHER SERVICE JACKSON MS
1000 AM CDT TUE OCT 21 2014

NOTE: "FAIR: INDICATES FEW OR NO CLOUDS BELOW 12,000 FEET WITH NO
SIGNIFICANT WEATHER AND/OR OBSTRUCTIONS TO VISIBILITY.

MSZ001>002-007>008-010>013-018>021-025>028-034>036-211600-
NORTHWEST MISSISSIPPI

CITY           SKY/WX    TMP DP  RH WIND       PRES   REMARKS
CLARKSDALE     FAIR      64  59  82 CALM      30.11S
CLEVELAND      FAIR      65  60  85 CALM      30.10S
GREENWOOD      SUNNY     65  57  75 CALM      30.11R
GREENVILLE     SUNNY     68  59  73 N5        30.10S
GRENADA          N/A    N/A N/A N/A MISG        N/A
OLIVE BRANCH   SUNNY     63  57  82 NE6       30.11R
OXFORD         FAIR      63  55  77 CALM      30.11S
TUNICA         SUNNY     61  59  94 CALM      30.11S
$$

MSZ003>006-009-014>017-022>024-029>033-037>039-211600-
NORTHEAST MISSISSIPPI

CITY           SKY/WX    TMP DP  RH WIND       PRES   REMARKS
COLUMBUS AFB   SUNNY     63  55  73 NW1       30.09S
CORINTH        FAIR      61  55  82 CALM      30.09S
GOLDN TRIANGLE SUNNY     66  54  63 NW3       30.10R
STARKVILLE     FAIR      64  54  68 CALM      30.10R
TUPELO         SUNNY     63  55  75 NE6       30.09S
$$

MSZ040-058-211600-
CENTRAL MISSISSIPPI

CITY           SKY/WX    TMP DP  RH WIND       PRES   REMARKS
JACKSON INTL   MOSUNNY   66  53  63 E3        30.10F
JACKSON HAWKNS SUNNY     67  54  63 CALM      30.12R
MERIDIAN KEY   SUNNY     66  53  63 CALM      30.10S
MERIDIAN NAS   SUNNY     66  52  60 CALM      30.10S
RAYMOND        FAIR      63  57  82 MISG      30.11S
VICKSBURG      SUNNY     67  55  65 CALM      30.12R
$$

MSZ059>079-211600-
SOUTH MISSISSIPPI

CITY           SKY/WX    TMP DP  RH WIND       PRES   REMARKS
BROOKHAVEN     FAIR      64  54  68 CALM      30.12R
COLUMBIA         N/A    N/A N/A N/A MISG        N/A
HATTIESBURG    SUNNY     67  55  65 N3        30.10S
MCCOMB         SUNNY     68  52  56 NE5       30.10R
NATCHEZ        SUNNY     64  54  68 CALM      30.12R
PINE BELT      SUNNY     64  52  63 E3        30.11S
$$

MSZ080>082-211600-
COASTAL MISSISSIPPI

CITY           SKY/WX    TMP DP  RH WIND       PRES   REMARKS
BILOXI         NOT AVBL
PASCAGOULA     SUNNY     69  53  56 NE7       30.07S
GULFPORT       SUNNY     69  53  56 NE7       30.06S
$$



USA.gov is the U.S. government's official web portal to all federal, state and local government web resources and services.